Location: Jackson Park
(37.2862°N, 79.9123°W)
Time: 19:45:07
(UTC+00:00)

Vanguard 2 - Pass Details

Date: 10 May 2026
Orbit: 553 x 2894 km, 32.9° (Epoch: 6 June)

Event Time Altitude Azimuth Distance (km) Brightness Sun altitude
Rises 09:25:35 0° 248° (WSW) 6,728 - -9.6°
Exits shadow 09:29:55 - 246° (WSW) 5,739 11.3 -8.9°
Reaches altitude 10° 09:30:12 10° 246° (WSW) 5,675 11.3 -8.9°
Maximum altitude 09:47:01 68° 169° (S) 2,510 10.1 -5.9°
Drops below altitude 10° 09:58:29 10° 90° (E) 4,035 12.5 -3.9°
Sets 10:01:11 0° 87° (E) 4,755 13.1 -3.4°
